Edmonton, Alberta

1:59 PM MDT on July 20, 2017 (GMT -0600)
Edmonton International Airport

Weather History for CYEG - October, 2012

Change the Weather History Date:

Sunday, October 28, 2012

  Actual Average Record
Temperature  
Mean Temperature 22 °F -  
Max Temperature 26 °F 32 °F 57 °F (2007)
Min Temperature 19 °F 13 °F 4 °F (2013)
Degree Days  
Heating Degree Days 42    
Moisture  
Dew Point 20 °F    
Average Humidity 90    
Maximum Humidity 100    
Minimum Humidity 81    
Precipitation  
Precipitation 0.02 in 0.02 in - ()
Sea Level Pressure  
Sea Level Pressure 29.96 in    
Wind  
Wind Speed 13 mph ()    
Max Wind Speed 21 mph    
Max Gust Speed 26 mph    
Visibility 7.9 miles    
Events Snow    
Averages and records for this station are not official NWS values.
T = Trace of Precipitation, MM = Missing Value Source: Averaged Metar Reports

Daily Weather History Graph

Daily Weather History Graph

Search for Another Location

Airport or City:

Trip Planner

Search our weather history database for the weather conditions in past years. The results will help you decide how hot, cold, wet, or windy it might be!

Date:

Astronomy

Oct. 28, 2012 Rise Set
Actual Time 8:26 AM MDT 6:08 PM MDT
Civil Twilight 7:50 AM MDT 6:45 PM MDT
Nautical Twilight 7:09 AM MDT 7:26 PM MDT
Astronomical Twilight 6:28 AM MDT 8:06 PM MDT
Moon 5:28 PM MDT (10/28) 7:20 AM MDT (10/28)
Length of Visible Light 10h 55m
Length of Day
9h 42m
Waxing Gibbous, 99% of the Moon is Illuminated
Oct 28
Waxing Gibbous
Oct 29
Full
Nov 6
Last Quarter
Nov 13
New
Nov 20
First Quarter

Hourly Weather History & Observations

Time (MDT) Temp. Windchill Dew Point Humidity Pressure Visibility Wind Dir Wind Speed Gust Speed Precip Events Conditions
12:00 AM 19 °F - 16 °F 81% 30.07 in 15 mi SE 18.4 mph - -   Overcast
12:00 AM 19.4 °F 4.1 °F 15.8 °F 86% 30.06 in 15.0 mi SE 18.4 mph 24.2 mph N/A   Overcast
12:14 AM 19.4 °F 5.0 °F 15.8 °F 86% 30.07 in 15.0 mi SE 16.1 mph 24.2 mph N/A   Overcast
1:00 AM 19.4 °F 5.0 °F 15.8 °F 86% 30.05 in 15.0 mi ESE 16.1 mph 23.0 mph N/A   Overcast
1:26 AM 19.4 °F 3.6 °F 15.8 °F 86% 30.04 in 15.0 mi ESE 19.6 mph - N/A Snow Light Snow Grains
2:00 AM 19.4 °F 5.5 °F 17.6 °F 93% 30.03 in 6.0 mi ESE 15.0 mph 21.9 mph N/A Snow Light Snow Grains
3:00 AM 19.4 °F 5.0 °F 17.6 °F 93% 30.01 in 4.0 mi ESE 16.1 mph 21.9 mph N/A Snow Light Snow Grains
4:00 AM 19.4 °F 5.5 °F 17.6 °F 93% 29.98 in 4.0 mi ESE 15.0 mph - N/A Snow Light Snow Grains
4:56 AM 19.4 °F 6.0 °F 17.6 °F 93% 29.97 in 6.0 mi ESE 13.8 mph 20.7 mph N/A Snow Light Snow
5:00 AM 19.4 °F 4.5 °F 17.6 °F 93% 29.97 in 6.0 mi ESE 17.3 mph - N/A Snow Light Snow
6:00 AM 20 °F - 18 °F 87% 29.95 in 3 mi ESE 18.4 mph - - Snow Light Snow
6:00 AM 19.4 °F 5.0 °F 17.6 °F 93% 29.95 in 3.0 mi ESE 16.1 mph 24.2 mph N/A Snow Light Snow
6:19 AM 19.4 °F 5.5 °F 17.6 °F 93% 29.95 in 3.0 mi ESE 15.0 mph - N/A Snow Light Snow
6:32 AM 21.2 °F 7.8 °F 17.6 °F 86% 29.94 in 3.0 mi ESE 15.0 mph 23.0 mph N/A Snow Light Snow
7:00 AM 21.2 °F 7.8 °F 17.6 °F 86% 29.93 in 5.0 mi ESE 15.0 mph 21.9 mph N/A Snow Light Snow
8:00 AM 19.4 °F 5.5 °F 17.6 °F 93% 29.92 in 5.0 mi ESE 15.0 mph 23.0 mph N/A Snow Light Snow
9:00 AM 21.2 °F 6.0 °F 17.6 °F 86% 29.91 in 4.0 mi ESE 19.6 mph - N/A Snow Light Snow
9:20 AM 21.2 °F 7.3 °F 17.6 °F 86% 29.91 in 10.0 mi ESE 16.1 mph - N/A   Overcast
9:45 AM 21.2 °F 6.0 °F 17.6 °F 86% 29.90 in 10.0 mi ESE 19.6 mph - N/A   Overcast
10:00 AM 21.2 °F 5.6 °F 17.6 °F 86% 29.89 in 10.0 mi ESE 20.7 mph 26.5 mph N/A   Overcast
10:21 AM 21.2 °F 6.4 °F 17.6 °F 86% 29.88 in 10.0 mi ESE 18.4 mph 25.3 mph N/A   Overcast
10:53 AM 21.2 °F 6.8 °F 19.4 °F 93% 29.88 in 10.0 mi SE 17.3 mph 24.2 mph N/A   Overcast
11:00 AM 21.2 °F 6.4 °F 19.4 °F 93% 29.88 in 10.0 mi ESE 18.4 mph - N/A   Overcast
12:00 PM 22 °F - 20 °F 88% 29.87 in 6 mi SE 18.4 mph - -   Mist
12:00 PM 23.0 °F 9.2 °F 19.4 °F 86% 29.87 in 6.0 mi SE 17.3 mph 25.3 mph N/A   Overcast
1:00 PM 23.0 °F 10.1 °F 21.2 °F 93% 29.85 in 7.0 mi SE 15.0 mph - N/A Snow Light Snow
2:00 PM 24.8 °F 11.9 °F 23.0 °F 93% 29.86 in 5.0 mi SE 16.1 mph - N/A Snow Light Snow
3:00 PM 24.8 °F 17.9 °F 23.0 °F 93% 29.89 in 5.0 mi ESE 5.8 mph - N/A Snow Light Snow
4:00 PM 24.8 °F 17.9 °F 24.8 °F 100% 29.90 in 4.0 mi East 5.8 mph - N/A Snow Light Snow
4:14 PM 24.8 °F 19.1 °F 24.8 °F 100% 29.91 in 2.5 mi East 4.6 mph - N/A Snow Light Snow
4:30 PM 24.8 °F 20.5 °F 24.8 °F 100% 29.92 in 4.0 mi East 3.5 mph - N/A Snow Light Snow
5:00 PM 24.8 °F - 24.8 °F 100% 29.93 in 4.0 mi NNE 2.3 mph - N/A Snow Light Snow
6:00 PM 26 °F - 24 °F 88% 29.96 in 5 mi WNW 4.6 mph - - Snow Light Snow
6:00 PM 24.8 °F 19.1 °F 24.8 °F 100% 29.96 in 5.0 mi WNW 4.6 mph - N/A Snow Light Snow
6:08 PM 26.6 °F 21.2 °F 24.8 °F 93% 29.96 in 6.0 mi WNW 4.6 mph - N/A Snow Light Snow
6:15 PM 26.6 °F 21.2 °F 24.8 °F 93% 29.96 in 6.0 mi NW 4.6 mph - N/A Snow Light Snow
6:42 PM 26.6 °F 17.5 °F 23.0 °F 86% 29.99 in 7.0 mi NW 9.2 mph - N/A Snow Light Snow
7:00 PM 24.8 °F 16.1 °F 23.0 °F 93% 29.99 in 4.0 mi NW 8.1 mph - N/A Snow Light Snow
7:05 PM 24.8 °F 16.1 °F 23.0 °F 93% 29.99 in 4.0 mi NW 8.1 mph - N/A Snow Light Snow
8:00 PM 24.8 °F 19.1 °F 21.2 °F 86% 29.99 in 10.0 mi NNW 4.6 mph - N/A Snow Light Snow
9:00 PM 24.8 °F 12.9 °F 21.2 °F 86% 30.03 in 10.0 mi WNW 13.8 mph - N/A Snow Light Snow
10:00 PM 21.2 °F 13.6 °F 19.4 °F 93% 30.04 in 15.0 mi WNW 5.8 mph - N/A Snow Light Snow
10:24 PM 23.0 °F 14.7 °F 19.4 °F 86% 30.05 in 15.0 mi WNW 6.9 mph - N/A   Overcast
10:44 PM 23.0 °F 13.9 °F 19.4 °F 86% 30.06 in 15.0 mi NW 8.1 mph - N/A   Overcast
11:00 PM 23.0 °F 13.9 °F 19.4 °F 86% 30.05 in 15.0 mi NNW 8.1 mph - N/A   Mostly Cloudy
11:34 PM 19.4 °F 11.5 °F 15.8 °F 86% 30.05 in 15.0 mi NW 5.8 mph - N/A   Scattered Clouds